CAPE
2037 2004 2025 1955 1956 1988 2216 2351 2221 2338 2374 2267 2158 2256 2246 2218 2151 2102 2092 2072 1984 1648 1699 1707 1739 1732 1790 1872 1764 1550 1579 1507 1382 1222 1298 1130 1256 1126 1210 1293 1354 1388 1542 1605 1689 1181 785 636 959 955 953 853 782 0 0 0 0 4 6 18 238 54
2035 1992 1998 1980 1982 2002 2064 2175 2044 2100 2174 2210 2210 2209 2175 2034 2241 1942 2076 1918 1690 1633 1620 1628 1576 1728 1694 1732 1546 1474 1485 1423 1364 1374 1120 1213 1349 1222 1326 1414 1471 1562 1578 1634 988 396 56 169 374 540 718 573 22 0 0 0 0 0 0 0 56 26
2032 2004 1991 2012 1999 1955 2053 1852 2007 2045 2039 2249 2160 2203 2003 2116 1964 1893 1824 1685 1585 1505 1506 1497 1475 1522 1446 1432 1383 1453 1468 1438 1407 1304 1094 1321 1256 1382 1271 1324 1434 1443 1294 862 595 0 0 0 0 164 98 0 0 0 0 0 0 0 0 0 79 174
2035 2004 1937 1984 1964 1940 1891 1805 1937 1994 1987 2007 2017 2000 1951 1904 1854 1813 1687 1549 1450 1328 1368 1377 1683 1696 1558 1330 1271 1463 1478 1482 1478 1360 1388 1162 1419 1351 1418 1165 904 787 551 108 0 0 4 0 0 0 0 0 0 0 0 0 0 0 0 12 8 136
1999 1992 1894 1930 1945 1916 1740 1833 1912 1853 1914 1923 1958 1875 1854 1824 1745 1673 1584 1445 1312 1200 1289 1281 1466 1367 1286 1212 1160 1260 1346 1288 1318 1310 1225 1094 942 760 403 195 45 5 0 0 0 0 0 0 0 0 141 0 0 0 0 0 0 0 0 0 0 209
1966 1973 1868 1869 1888 1968 1770 1859 1918 1794 1853 1838 1858 1734 1680 1695 1620 1560 1490 1386 1235 1105 1178 1174 1326 1292 1225 1159 1089 1188 1302 1227 1231 1115 1007 810 399 15 0 0 0 0 0 0 0 0 0 32 0 0 484 468 356 0 0 241 246 0 0 0 244 314
1968 1953 1793 1786 1809 1879 1713 1827 1881 1682 1791 1776 1755 1683 1625 1619 1546 1432 1323 1300 1105 962 856 959 1036 1180 1104 978 814 978 1094 1126 1065 781 485 308 38 0 0 0 0 0 0 0 0 0 0 0 0 474 591 568 549 327 0 138 328 339 336 294 258 278
1846 1888 1714 1699 1718 1796 1699 1795 1879 1633 1696 1635 1747 1668 1594 1580 1508 1420 1274 1235 1043 872 735 664 859 1027 1023 681 605 525 691 852 810 641 432 322 8 0 0 0 0 0 0 0 0 0 0 430 574 642 670 655 462 390 352 311 0 0 310 251 0 109
1675 1782 1656 1619 1576 1766 1645 1754 1830 1546 1560 1436 1731 1662 1595 1536 1425 1393 1233 1152 1027 808 670 646 710 810 939 744 621 565 536 531 595 570 426 32 1 0 0 0 0 0 0 0 0 63 507 654 762 802 840 623 420 368 368 321 73 0 0 0 0 235
1660 1684 1605 1570 1398 1711 1536 1645 1756 1578 1535 1351 1664 1615 1572 1485 1336 1346 1258 1162 982 832 597 571 591 627 620 729 622 432 406 497 528 494 434 334 0 0 0 0 0 0 0 0 0 451 685 762 809 812 746 566 470 416 326 272 203 0 5 9 47 348
1618 1536 1556 1469 1305 1681 1393 1544 1706 1557 1550 1395 1606 1554 1468 1404 1273 1280 1270 1121 997 863 542 425 463 543 477 524 577 469 338 408 512 495 417 8 0 0 0 0 0 0 0 0 556 751 769 722 714 694 676 534 483 438 369 465 449 437 441 324 22 82
1499 1398 1539 1399 1338 1714 1299 1530 1691 1505 1601 1471 1618 1484 1355 1367 1252 1188 1221 1113 1073 969 813 593 611 665 642 580 532 462 449 546 548 536 293 0 0 0 0 0 0 0 0 426 713 874 823 684 653 527 565 542 452 545 538 498 459 272 0 0 0 87
1421 1324 1479 1406 1362 1737 1344 1600 1643 1534 1588 1540 1655 1416 1290 1323 1199 1095 1082 1060 992 944 906 873 783 679 553 444 422 462 563 648 669 648 406 0 0 0 0 0 0 0 271 735 872 832 716 623 401 338 67 612 610 575 514 86 0 0 0 0 0 0
1411 1306 1456 1398 1319 1669 1349 1575 1587 1557 1580 1530 1590 1327 1233 1213 1196 1076 951 919 893 862 904 942 820 639 484 412 382 384 399 434 478 556 387 0 0 119 0 0 0 0 311 724 924 797 603 503 501 500 546 562 489 407 356 0 0 0 0 0 0 73
1535 1360 1455 1345 1333 1564 1411 1485 1511 1475 1552 1507 1469 1274 1147 1114 1090 1028 959 910 899 937 1010 1027 858 623 502 454 556 649 726 622 417 422 0 0 0 361 242 0 0 2 7 618 934 759 554 501 526 538 517 514 508 455 0 0 0 0 0 0 0 1
1459 1404 1336 1291 1256 1426 1472 1346 1397 1450 1439 1456 1357 1206 1104 1056 1014 958 936 918 952 1054 1092 1001 853 667 610 617 686 740 731 668 442 0 0 0 424 450 442 233 7 2 91 842 933 780 709 632 571 526 504 480 168 34 0 373 0 0 0 0 0 0
1372 1369 1297 1311 1111 1332 1329 1339 1197 1218 1347 1398 1286 1164 1079 1005 973 957 960 984 1043 1100 1107 1030 891 764 638 623 637 636 547 493 214 6 0 530 563 569 541 443 195 402 630 1079 1015 920 832 732 638 661 628 556 0 0 0 0 0 0 0 0 0 0
1354 1350 1307 1303 1064 1185 1315 1254 1169 1128 1227 1276 1215 1117 1056 1033 1007 1041 1121 1183 1211 1219 1209 1198 1099 921 805 729 654 541 454 425 0 101 514 584 600 604 529 385 638 934 1166 1126 1010 922 868 851 828 775 664 183 0 0 0 0 0 17 0 0 0 4
1375 1361 1343 1354 1134 1074 1226 1198 1119 1160 1192 1218 1172 1108 1111 1139 1136 1151 1193 1172 1168 1214 1262 1290 1278 1179 1043 926 688 460 490 498 316 77 498 616 679 572 324 618 914 1190 1430 1316 1071 1038 1017 960 865 594 0 0 0 0 0 0 0 0 0 0 116 16
1321 1376 1386 1369 1219 1086 1093 1097 1098 1136 1180 1216 1202 1158 1170 1200 1216 1242 1218 1146 1089 1111 1164 1237 1322 1324 1159 880 609 584 591 739 829 807 525 627 803 768 640 919 1116 1255 1310 1190 1100 1110 1064 946 708 299 0 0 0 0 0 0 0 0 0 0 0 204
1338 1410 1419 1374 1198 1105 1118 1131 1177 1226 1270 1280 1298 1261 1183 1148 1161 1182 1174 1120 1083 1091 1125 1194 1270 1308 1243 908 753 694 698 850 933 845 703 709 827 782 868 1116 1260 1230 1255 1170 1190 1126 1074 854 612 74 0 0 0 0 0 0 0 0 0 0 32 164
1365 1439 1466 1425 1293 1182 1151 1185 1212 1361 1402 1422 1402 1314 1236 1175 1200 1221 1178 1108 1076 1095 1150 1235 1280 1350 1382 1173 806 609 536 638 847 920 880 816 772 697 941 1144 1156 1165 1219 1250 1204 1126 1069 771 541 130 0 0 0 0 0 0 0 0 0 0 21 97
1354 1450 1525 1502 1447 1345 1225 1227 1240 1392 1412 1471 1465 1373 1276 1208 1255 1323 1293 1207 1115 1116 1202 1249 1366 1474 1553 1530 1331 903 518 593 788 930 882 827 753 746 890 1074 1140 1161 1132 1172 1232 1206 1168 854 512 120 0 7 14 0 0 0 0 0 0 0 0 35
1381 1471 1541 1555 1499 1413 1271 1246 1271 1356 1389 1443 1456 1409 1368 1322 1381 1392 1396 1344 1268 1302 1385 1459 1512 1581 1578 1481 1287 796 550 699 843 908 871 832 654 698 901 1107 1196 1191 1121 1131 1109 1103 958 805 531 315 101 0 0 0 0 0 0 0 0 0 0 42
1444 1468 1532 1580 1541 1469 1367 1365 1389 1413 1436 1426 1390 1401 1384 1403 1473 1493 1483 1445 1397 1480 1571 1641 1719 1772 1516 1052 690 474 630 804 899 911 864 814 743 698 919 1152 1221 1227 1178 1168 1175 1119 906 623 360 222 5 0 0 0 0 0 0 0 0 0 0 20
1519 1512 1542 1629 1630 1590 1566 1524 1500 1549 1586 1532 1522 1521 1501 1453 1427 1484 1527 1586 1562 1652 1730 1797 1871 1844 1451 811 620 608 739 879 954 942 895 822 762 716 924 1157 1276 1331 1204 1191 1180 1041 920 561 332 211 145 0 0 0 0 0 0 0 0 0 0 20
1572 1540 1556 1653 1697 1668 1649 1592 1526 1558 1661 1652 1574 1479 1464 1466 1494 1554 1644 1719 1765 1848 1890 1898 1864 1770 1269 930 740 643 821 945 976 939 905 885 850 886 1030 1233 1403 1392 1228 1190 1138 1107 787 512 195 81 0 0 0 0 0 0 0 0 0 0 0 0
1632 1602 1595 1635 1719 1722 1684 1662 1644 1662 1744 1831 1760 1549 1521 1629 1665 1688 1705 1801 1944 2067 2034 1904 1736 1409 1152 932 742 665 857 978 959 922 951 976 1002 1032 1186 1339 1364 1268 1067 1187 1207 1124 735 329 192 23 0 0 0 0 0 0 0 0 0 0 0 16
1704 1630 1623 1630 1720 1770 1742 1727 1764 1810 1878 1902 1916 1836 1692 1681 1754 1766 1787 1838 1986 2071 1929 1761 1576 1384 1096 844 732 681 853 971 959 969 1053 1106 1187 1310 1368 1320 1261 1128 1194 1246 1166 1088 769 464 262 108 0 0 0 0 0 0 0 0 0 0 0 0
1750 1707 1640 1662 1742 1817 1796 1811 1829 1900 1910 1922 1904 1907 1855 1797 1788 1865 1916 1948 1994 1988 1918 1716 1597 1381 1032 855 799 734 825 926 953 1023 1138 1246 1369 1532 1588 1410 1170 1141 1193 816 847 784 664 467 274 157 42 0 0 0 0 0 0 0 0 0 0 0
1800 1769 1720 1695 1769 1846 1859 1848 1878 1930 1938 1895 1884 1877 1880 1889 1919 1970 2010 1989 1957 1952 1830 1711 1644 1407 1152 1009 895 781 846 903 973 1093 1226 1384 1550 1598 1422 1178 1194 1212 1120 693 731 607 610 419 383 317 241 167 0 0 0 0 0 0 0 0 0 0
1826 1818 1776 1738 1809 1890 1894 1897 1922 1942 1937 1866 1841 1847 1910 1946 1993 2035 2013 1978 1917 1870 1793 1726 1700 1582 1232 992 907 823 866 959 1079 1235 1364 1476 1516 1446 1359 1217 1203 1246 1131 842 697 582 391 571 541 411 314 264 75 0 0 0 0 0 0 0 0 0
1843 1855 1846 1769 1861 1917 1949 1971 1979 1945 1859 1812 1814 1831 1856 1953 1976 2006 1984 1926 1873 1824 1766 1724 1720 1647 1307 937 866 832 886 996 1139 1364 1468 1516 1543 1600 1578 1568 1327 1311 943 678 664 834 802 467 546 414 400 278 100 0 0 0 0 0 0 0 0 0
1862 1909 1892 1835 1890 1929 1964 1958 1919 1856 1791 1773 1790 1809 1846 1865 1926 1943 1908 1864 1808 1768 1726 1684 1665 1609 1390 1074 872 785 804 940 1084 1298 1477 1590 1639 1604 1259 1158 917 1254 1092 642 650 714 787 731 505 389 334 224 0 0 0 0 0 0 0 0 0 0
1933 1962 1906 1880 1886 1957 1982 1956 1895 1844 1779 1740 1726 1759 1808 1816 1846 1865 1849 1795 1749 1700 1663 1634 1594 1586 1491 1356 1159 980 914 870 1038 1177 1428 1435 1447 1405 1372 985 1097 1220 1165 707 553 616 773 600 338 331 280 47 0 0 0 0 0 0 0 0 0 0
1996 2005 1966 1945 1951 1975 2010 2022 1980 1796 1706 1646 1645 1673 1674 1776 1791 1788 1782 1742 1709 1663 1618 1580 1553 1519 1511 1501 1466 1410 1282 1110 966 1082 1040 1102 1156 1134 1073 1010 922 1339 1330 652 438 674 698 372 257 291 167 0 0 0 0 0 0 0 0 0 0 0
2032 2016 2022 2026 2004 1938 2019 2030 2040 1838 1686 1683 1774 1858 1785 1708 1756 1746 1713 1686 1638 1603 1555 1533 1538 1534 1551 1566 1541 1486 1385 1189 985 900 1026 1011 1091 1169 1152 931 971 1218 1259 803 692 790 633 301 276 236 125 0 0 0 0 0 0 0 0 0 0 0
Wind_Speed
29 28 28 31 33 37 41 41 35 36 35 33 30 30 31 32 31 29 28 27 25 22 22 24 29 28 30 23 22 21 20 18 15 14 15 13 13 12 10 9 9 9 10 10 10 11 8 6 5 4 4 4 4 nan nan nan nan nan nan nan 14 nan
31 29 29 31 34 37 38 36 31 30 29 29 27 27 27 26 27 24 27 24 21 21 22 25 28 29 24 22 19 20 19 16 14 13 13 12 12 12 10 9 9 10 11 12 14 11 nan 7 6 5 5 4 nan nan nan nan nan nan nan nan nan nan
35 33 34 35 36 38 37 33 31 29 28 28 25 25 24 26 25 24 23 22 21 20 23 26 28 26 23 23 19 19 18 16 13 12 12 11 11 11 9 8 9 12 14 14 13 nan nan nan nan 7 nan nan nan nan nan nan nan nan nan nan nan 14
37 36 37 36 38 38 36 34 33 31 29 27 24 24 24 25 26 25 24 23 22 21 24 27 29 30 26 21 18 18 17 15 13 11 11 11 10 9 9 12 14 14 14 13 nan nan nan nan nan nan nan nan nan nan nan nan nan nan nan nan nan 16
41 39 38 37 39 39 38 34 34 33 30 27 26 25 25 26 26 26 24 23 23 22 24 26 26 25 24 21 17 15 14 14 12 11 11 13 11 10 10 10 nan nan nan nan nan nan nan nan nan nan 12 nan nan nan nan nan nan nan nan nan nan 14
44 43 42 39 40 40 39 34 33 34 31 27 26 26 26 26 26 25 23 24 24 23 24 26 27 26 24 22 19 16 16 15 14 12 12 13 11 nan nan nan nan nan nan nan nan nan nan nan nan nan 13 12 12 nan nan 13 13 nan nan nan 13 12
46 45 45 41 40 38 35 32 31 33 32 28 26 26 26 26 26 25 23 24 23 23 25 25 26 26 24 22 20 17 15 15 14 12 12 12 nan nan nan nan nan nan nan nan nan nan nan nan nan 14 14 12 13 13 nan 14 14 13 13 13 13 10
47 45 44 40 38 33 32 31 29 31 31 29 27 26 26 26 26 25 23 23 23 23 25 26 25 25 24 22 19 17 16 14 13 12 13 13 nan nan nan nan nan nan nan nan nan nan nan 13 14 14 13 13 13 13 13 14 nan nan 13 12 nan 12
46 41 40 37 34 31 30 30 28 28 30 28 26 26 27 27 26 23 23 23 23 23 24 25 25 25 25 23 20 17 15 13 12 11 14 nan nan nan nan nan nan nan nan nan nan nan 13 12 13 13 13 12 13 12 13 14 nan nan nan nan nan 13
41 38 38 35 31 29 28 28 26 27 29 27 25 27 27 26 25 23 23 23 23 23 24 24 24 25 25 23 20 18 16 13 12 12 13 11 nan nan nan nan nan nan nan nan nan 12 14 12 12 12 13 13 12 13 13 14 13 nan nan nan nan 12
37 37 34 31 30 27 27 26 25 27 28 26 25 27 27 26 24 22 23 23 23 23 24 24 24 25 25 24 21 18 16 15 13 12 12 nan nan nan nan nan nan nan nan nan 9 12 14 12 11 12 13 13 13 14 14 13 13 13 14 12 nan nan
36 34 29 27 27 25 26 25 25 27 28 27 26 26 27 25 23 23 23 23 23 23 24 24 24 25 26 25 22 19 17 16 14 14 14 nan nan nan nan nan nan nan nan 9 10 12 13 13 11 11 13 13 14 15 13 13 13 13 nan nan nan nan
33 29 26 25 24 23 25 24 24 26 27 27 26 27 26 24 23 23 23 23 22 23 24 25 24 25 26 25 23 20 18 16 16 16 16 nan nan nan nan nan nan nan 10 11 12 12 15 14 11 11 nan 13 13 13 12 nan nan nan nan nan nan nan
29 27 26 26 23 23 24 23 23 25 26 26 26 27 26 24 24 24 24 23 23 23 24 24 26 25 27 26 23 21 19 16 16 17 19 nan nan 15 nan nan nan nan 11 13 12 14 15 12 12 14 14 12 13 12 13 nan nan nan nan nan nan nan
26 27 28 26 24 22 23 22 23 24 24 24 26 26 25 24 24 25 25 24 23 24 24 25 26 26 27 26 23 21 19 16 17 19 nan nan nan 17 18 nan nan nan nan 13 15 13 15 14 15 17 14 12 13 13 nan nan nan nan nan nan nan nan
25 27 28 26 24 21 21 21 22 22 23 23 25 25 24 24 26 27 25 23 23 25 25 25 26 26 27 27 22 20 19 18 18 nan nan nan 19 18 19 16 nan nan nan 12 14 13 16 18 18 16 14 14 14 nan nan 13 nan nan nan nan nan nan
26 27 26 25 23 20 18 18 19 20 20 22 24 24 25 27 28 27 25 24 24 25 25 25 26 28 28 26 22 19 18 18 19 nan nan 20 19 18 19 15 14 15 16 16 16 17 19 19 18 15 14 16 nan nan nan nan nan nan nan nan nan nan
27 25 23 22 22 17 16 16 17 17 18 20 22 25 27 28 28 27 27 25 25 25 25 25 27 29 27 23 21 20 17 18 nan 21 20 21 17 19 18 17 14 16 16 17 19 21 21 20 17 16 16 17 nan nan nan nan nan nan nan nan nan nan
26 22 19 20 21 17 15 14 14 15 16 18 21 24 28 29 28 28 26 25 26 26 25 26 28 29 26 22 20 19 17 17 20 nan 21 21 20 21 21 18 17 16 16 16 20 22 23 21 20 18 nan nan nan nan nan nan nan nan nan nan 21 nan
24 21 18 18 19 16 13 11 12 13 14 17 21 23 27 29 29 28 25 25 26 25 26 27 28 28 25 22 20 19 17 17 18 20 21 21 21 22 22 20 18 19 18 19 21 24 24 23 21 21 nan nan nan nan nan nan nan nan nan nan nan 19
23 21 18 17 17 15 12 11 10 11 13 18 21 24 27 28 28 27 24 25 26 25 27 28 28 27 23 21 20 18 17 16 15 17 19 18 19 20 22 21 20 18 20 21 22 22 20 19 19 nan nan nan nan nan nan nan nan nan nan nan nan 19
22 20 17 16 16 14 12 11 12 14 18 20 22 24 26 26 26 26 25 25 25 26 28 28 27 24 21 20 20 19 18 16 15 15 16 15 17 19 22 23 21 20 18 21 21 20 17 18 18 17 nan nan nan nan nan nan nan nan nan nan nan nan
19 18 17 16 16 15 14 15 16 19 20 23 24 25 25 25 26 26 26 25 26 27 29 28 25 23 21 20 19 20 19 17 15 15 16 15 15 17 20 20 19 19 19 20 22 21 21 18 18 18 nan nan nan nan nan nan nan nan nan nan nan nan
18 18 17 17 17 16 16 16 18 21 22 22 22 22 23 25 26 27 25 26 27 29 29 28 25 22 20 20 20 20 20 19 18 17 17 16 15 15 17 17 18 17 22 22 22 23 22 21 21 22 19 nan nan nan nan nan nan nan nan nan nan nan
18 17 18 19 18 18 17 19 21 22 22 23 25 22 23 24 26 26 26 28 28 29 28 26 23 21 20 20 20 20 20 20 20 19 19 18 16 14 14 15 18 19 20 23 22 23 24 25 24 21 nan nan nan nan nan nan nan nan nan nan nan nan
17 17 18 19 19 19 18 18 19 19 19 17 18 20 20 22 25 26 25 29 29 27 26 24 22 20 20 21 21 20 18 16 14 15 17 18 18 17 15 16 17 19 19 20 25 25 26 25 26 25 23 nan nan nan nan nan nan nan nan nan nan nan
16 17 18 20 20 19 18 17 15 16 17 16 17 19 23 24 25 25 27 27 26 25 24 23 21 20 21 22 22 20 18 14 15 18 19 20 18 18 18 17 19 20 19 23 26 25 27 25 26 nan nan nan nan nan nan nan nan nan nan nan nan nan
16 17 19 20 19 19 18 17 15 15 16 16 17 20 23 24 26 26 25 23 25 24 24 23 22 22 22 22 23 21 20 20 22 22 23 20 18 17 18 20 21 19 22 23 24 24 25 25 23 nan nan nan nan nan nan nan nan nan nan nan nan nan
15 17 19 19 19 19 18 16 14 14 15 16 18 21 24 25 24 24 22 22 23 23 23 23 23 24 23 23 23 22 21 21 22 22 21 20 18 19 18 20 22 23 22 23 22 23 26 23 22 21 nan nan nan nan nan nan nan nan nan nan nan nan
15 17 20 19 19 18 17 15 13 12 13 15 18 22 24 23 21 21 19 20 21 22 22 23 24 24 24 23 22 22 21 21 21 21 20 19 19 18 18 20 25 31 34 32 28 20 19 25 23 22 nan nan nan nan nan nan nan nan nan nan nan nan
16 19 20 18 18 18 16 14 11 10 11 14 17 21 21 19 19 18 17 18 20 21 21 22 23 23 23 22 21 21 20 20 20 20 20 20 20 21 23 26 27 30 27 28 29 23 18 25 25 22 22 21 nan nan nan nan nan nan nan nan nan nan
17 18 19 18 18 18 15 11 9 10 10 13 16 17 17 16 16 16 17 19 20 22 20 20 20 21 20 20 20 19 19 20 20 21 21 22 25 27 26 27 27 26 25 26 27 24 21 27 25 22 22 20 nan nan nan nan nan nan nan nan nan nan
17 18 18 17 17 16 13 10 9 9 10 13 14 15 14 14 15 16 18 21 21 19 19 18 18 19 19 19 19 20 20 20 21 22 25 28 29 29 27 27 28 29 28 25 23 24 24 24 23 21 21 21 nan nan nan nan nan nan nan nan nan nan
17 18 18 17 17 15 11 9 10 9 10 13 13 13 13 14 15 17 19 20 19 19 18 18 19 18 19 20 19 20 21 21 21 24 28 31 32 30 30 25 26 29 28 25 24 25 26 27 25 24 24 23 nan nan nan nan nan nan nan nan nan nan
18 15 16 17 18 14 12 10 10 10 11 12 12 13 14 15 17 18 17 18 17 17 17 17 17 17 20 20 20 21 21 21 23 27 30 31 29 29 31 31 24 25 29 29 26 28 28 28 27 25 24 nan nan nan nan nan nan nan nan nan nan nan
15 15 16 17 16 15 13 12 11 11 12 13 13 15 16 17 18 18 17 16 16 16 16 17 16 18 18 20 20 20 20 21 25 30 30 30 30 27 33 33 25 25 27 27 29 30 28 28 28 27 27 nan nan nan nan nan nan nan nan nan nan nan
17 15 15 15 16 15 13 11 10 12 14 15 15 16 16 18 19 17 15 14 15 15 16 17 16 17 18 18 18 18 19 21 25 28 29 31 30 28 31 31 27 27 27 27 30 32 29 28 28 28 28 nan nan nan nan nan nan nan nan nan nan nan
Wind_Direction
294 290 286 287 289 298 304 302 294 295 297 304 308 312 313 313 312 311 310 311 310 307 307 310 312 311 322 317 317 315 309 307 304 306 311 316 316 308 296 279 272 271 269 268 266 262 262 267 286 301 313 325 321 nan nan nan nan nan nan nan 358 nan
290 288 286 288 291 297 299 293 284 283 283 291 299 304 305 300 302 298 305 305 297 303 303 302 306 315 313 318 319 318 316 310 304 306 310 314 318 312 299 281 264 258 261 261 258 277 nan 289 289 300 304 296 nan nan nan nan nan nan nan nan nan nan
289 287 290 293 294 297 296 283 279 279 275 280 287 290 288 294 290 293 291 290 294 296 302 303 305 310 315 323 320 322 320 312 305 307 308 312 313 314 302 280 260 249 250 254 269 nan nan nan nan 286 nan nan nan nan nan nan nan nan nan nan nan 345
289 291 291 291 292 294 291 281 273 274 271 269 274 276 281 283 286 286 286 286 290 297 300 303 311 319 323 319 317 322 324 315 306 306 309 301 292 295 280 252 240 238 247 258 nan nan nan nan nan nan nan nan nan nan nan nan nan nan nan nan nan 339
288 291 292 289 293 292 288 281 271 269 269 265 265 270 274 277 281 282 283 284 289 296 300 303 304 308 311 314 310 310 312 300 282 280 290 280 283 286 283 277 nan nan nan nan nan nan nan nan nan nan 271 nan nan nan nan nan nan nan nan nan nan 326
287 290 290 289 291 289 288 283 273 267 265 262 261 266 270 274 277 280 280 283 289 297 300 302 301 305 312 312 314 312 312 301 288 283 280 279 281 nan nan nan nan nan nan nan nan nan nan nan nan nan 275 283 291 nan nan 301 305 nan nan nan 309 315
286 286 288 287 285 284 284 282 273 265 263 261 258 261 266 270 274 278 278 284 289 294 300 302 303 307 313 312 314 310 312 307 299 287 284 285 nan nan nan nan nan nan nan nan nan nan nan nan nan 274 276 281 284 289 nan 294 298 298 296 297 301 303
284 284 284 283 281 281 281 283 275 265 259 261 257 259 263 266 271 276 278 284 291 295 299 303 307 307 312 314 315 314 307 308 304 292 283 283 nan nan nan nan nan nan nan nan nan nan nan 265 269 276 275 278 280 284 289 294 nan nan 293 292 nan 294
284 284 281 279 278 276 281 281 274 263 257 261 250 254 259 263 270 271 279 284 289 292 297 302 309 307 306 315 312 312 307 310 306 297 285 nan nan nan nan nan nan nan nan nan nan nan 258 260 267 278 284 276 276 277 276 280 nan nan nan nan nan 295
283 281 280 278 276 276 282 281 273 262 255 253 245 250 257 260 266 271 277 283 289 292 297 300 306 306 308 309 315 311 305 304 304 299 292 291 nan nan nan nan nan nan nan nan nan 260 260 260 262 270 276 278 277 277 278 275 277 nan nan nan nan 292
279 279 279 282 280 278 282 279 270 260 256 249 244 248 254 257 263 270 275 283 286 291 294 298 301 303 304 306 306 308 308 301 300 303 299 nan nan nan nan nan nan nan nan nan 254 257 258 261 265 266 269 271 276 276 274 277 277 278 282 288 nan nan
276 279 284 289 283 278 283 278 268 261 255 247 245 247 252 254 262 268 274 282 285 287 290 295 298 300 302 302 304 306 306 303 304 304 303 nan nan nan nan nan nan nan nan 269 249 249 257 254 252 263 264 271 276 275 281 287 293 293 nan nan nan nan
276 281 287 289 281 275 278 274 268 260 252 248 244 249 251 254 259 266 273 279 284 288 288 293 297 299 300 302 307 309 308 308 307 305 303 nan nan nan nan nan nan nan 270 265 257 255 256 253 253 255 nan 268 273 284 292 nan nan nan nan nan nan nan
275 282 285 280 280 276 278 271 265 257 255 251 246 251 251 252 258 265 272 278 284 288 288 292 295 297 298 302 309 312 312 310 307 305 301 nan nan 293 nan nan nan nan 270 275 267 260 260 263 264 264 260 262 269 274 284 nan nan nan nan nan nan nan
270 278 282 280 285 279 279 270 264 259 257 253 248 251 251 252 256 262 268 274 283 285 287 291 295 298 300 304 311 314 314 315 309 300 nan nan nan 293 289 nan nan nan nan 274 272 274 277 286 279 266 264 270 267 270 nan nan nan nan nan nan nan nan
269 276 279 280 280 281 276 273 262 262 258 255 250 249 250 253 255 259 265 271 280 283 285 292 296 298 299 304 312 313 315 313 307 nan nan nan 293 295 292 292 nan nan nan 285 284 284 288 282 270 269 271 269 266 nan nan 280 nan nan nan nan nan nan
272 277 277 278 284 281 280 272 268 263 262 258 251 247 248 250 255 260 264 269 275 280 287 292 294 295 298 305 311 312 312 310 299 nan nan 288 289 291 291 293 293 298 300 298 297 298 279 274 269 269 268 266 nan nan nan nan nan nan nan nan nan nan
269 273 272 279 287 287 281 275 266 262 262 258 252 245 245 251 256 259 262 266 272 278 285 290 291 292 298 305 309 310 308 303 nan 290 287 282 283 282 285 287 291 292 296 298 300 291 286 276 273 266 264 264 nan nan nan nan nan nan nan nan nan nan
272 270 271 279 286 291 286 277 267 264 262 258 250 245 245 250 255 257 260 264 270 276 283 287 288 291 298 305 306 307 307 303 295 nan 285 281 277 277 278 281 287 287 284 293 294 292 285 280 272 267 nan nan nan nan nan nan nan nan nan nan 271 nan
271 270 268 273 280 287 286 279 273 265 262 257 252 247 246 250 254 257 260 264 270 277 281 283 287 291 300 304 306 309 315 306 300 294 288 281 276 275 281 282 285 290 292 287 281 284 277 272 268 268 nan nan nan nan nan nan nan nan nan nan nan 270
270 273 270 271 278 285 288 269 256 261 261 252 248 246 246 249 253 256 261 265 270 275 279 282 287 294 301 302 303 306 309 308 305 298 292 288 283 280 279 281 281 283 291 290 287 283 276 269 265 nan nan nan nan nan nan nan nan nan nan nan nan 267
271 276 276 274 272 274 269 250 240 241 243 244 244 245 245 248 252 254 258 263 269 275 279 283 289 295 298 300 300 303 307 311 305 299 295 289 280 277 274 275 278 277 274 291 295 295 285 264 252 267 nan nan nan nan nan nan nan nan nan nan nan nan
274 280 278 275 269 268 260 243 235 234 241 238 239 242 243 246 249 253 257 263 270 274 279 283 289 293 295 299 302 303 307 303 301 294 289 288 283 278 274 278 283 283 280 275 283 284 277 262 268 266 nan nan nan nan nan nan nan nan nan nan nan nan
277 278 275 271 266 262 260 249 239 241 246 247 248 249 246 246 249 252 257 263 268 273 280 286 291 293 295 299 302 305 303 299 295 289 289 289 287 283 276 273 275 278 280 282 285 283 273 272 268 274 265 nan nan nan nan nan nan nan nan nan nan nan
275 277 270 269 267 260 259 250 246 247 251 252 244 251 250 249 253 255 257 263 271 276 283 288 293 297 298 300 300 301 305 303 293 286 285 289 290 290 287 281 279 277 284 286 288 284 275 268 267 261 nan nan nan nan nan nan nan nan nan nan nan nan
270 270 267 267 267 261 258 257 255 258 265 264 259 256 258 260 258 261 265 266 273 281 286 290 295 299 295 293 299 302 305 305 297 295 300 302 301 291 282 278 279 282 284 282 286 286 278 264 261 260 265 nan nan nan nan nan nan nan nan nan nan nan
271 266 261 261 265 260 258 257 264 260 255 254 254 251 253 257 261 264 270 277 282 283 288 294 297 294 293 294 298 302 302 299 297 303 306 303 303 300 289 283 277 278 282 280 281 287 288 280 264 nan nan nan nan nan nan nan nan nan nan nan nan nan
264 262 255 255 261 260 259 258 258 258 258 261 264 263 264 264 266 271 279 285 284 286 291 295 295 293 294 296 298 301 299 293 293 298 299 299 300 298 288 275 274 274 271 277 286 290 288 284 279 nan nan nan nan nan nan nan nan nan nan nan nan nan
263 258 251 255 258 259 258 261 261 255 256 258 265 265 266 268 273 277 283 280 283 288 292 293 294 297 297 298 300 301 300 296 294 295 295 290 286 288 290 280 273 270 267 265 264 274 286 285 276 275 nan nan nan nan nan nan nan nan nan nan nan nan
261 252 247 251 254 259 260 258 261 262 268 265 262 261 266 272 276 278 285 286 287 287 291 293 295 297 298 299 299 298 299 300 300 297 292 287 280 279 278 275 263 254 248 249 248 249 276 285 278 273 nan nan nan nan nan nan nan nan nan nan nan nan
256 248 247 251 255 258 257 259 262 266 270 270 269 268 270 271 272 275 283 285 286 288 292 297 296 297 299 300 299 298 298 299 297 295 289 281 274 271 267 268 272 273 274 276 271 269 266 278 276 270 264 264 nan nan nan nan nan nan nan nan nan nan
252 251 249 251 255 258 257 259 261 271 277 272 275 272 278 280 281 286 285 283 282 286 293 294 297 297 300 303 302 300 298 293 292 288 285 278 270 265 266 270 274 276 270 263 266 270 272 277 277 263 257 257 nan nan nan nan nan nan nan nan nan nan
256 251 250 253 257 260 260 261 264 269 271 272 278 280 280 278 282 284 281 282 288 297 295 300 302 303 307 311 308 306 303 298 291 289 283 275 270 267 266 272 277 276 272 268 266 268 269 276 276 264 255 253 nan nan nan nan nan nan nan nan nan nan
257 251 248 251 257 261 265 262 262 268 273 275 279 278 272 276 278 277 282 293 302 306 308 313 310 315 314 314 316 317 312 306 296 288 282 276 276 277 275 272 274 277 280 269 262 265 266 270 264 253 253 259 nan nan nan nan nan nan nan nan nan nan
253 252 254 256 254 262 260 257 256 264 273 273 277 272 271 272 275 278 286 297 303 303 309 312 314 313 309 317 320 315 313 307 297 286 279 284 290 284 278 271 268 274 270 264 262 262 265 270 266 260 254 nan nan nan nan nan nan nan nan nan nan nan
255 252 250 254 256 261 258 254 257 266 269 268 264 265 265 266 270 281 294 301 306 309 312 309 308 305 311 313 316 317 311 305 294 285 287 292 296 289 279 282 278 273 272 265 267 266 264 265 266 264 260 nan nan nan nan nan nan nan nan nan nan nan
245 246 253 256 257 256 257 258 260 263 264 264 266 269 271 274 279 285 294 298 303 311 307 305 307 303 302 305 312 313 310 304 293 291 292 293 295 289 282 281 279 275 273 270 271 271 266 266 265 265 263 nan nan nan nan nan nan nan nan nan nan nan